McCall, ID

12:39 AM MDT on May 30, 2017 (GMT -0600)
McCall

Weather History for KMYL - February, 2012

Change the Weather History Date:

Tuesday, February 28, 2012

  Actual Average Record
Temperature  
Mean Temperature 14 °F 25 °F  
Max Temperature 29 °F 36 °F 57 °F (1992)
Min Temperature -1 °F 13 °F -20 °F (1960)
Degree Days  
Heating Degree Days 51 40  
Month to date heating degree days 1190 1200  
Since 1 July heating degree days 5977 6675  
Cooling Degree Days 0 0  
Month to date cooling degree days 0 0  
Year to date cooling degree days 0 0  
Moisture  
Dew Point 8 °F    
Average Humidity 73    
Maximum Humidity 95    
Minimum Humidity 50    
Precipitation  
Precipitation 0.40 in 0.06 in 1.03 in (2006)
Month to date precipitation 1.80 1.74  
Year to date precipitation 5.11 3.47  
Sea Level Pressure  
Sea Level Pressure 29.93 in    
Wind  
Wind Speed 4 mph (SSE)    
Max Wind Speed 18 mph    
Max Gust Speed 25 mph    
Visibility 10 miles    
Events Snow    
T = Trace of Precipitation, MM = Missing Value Source: NWS Daily Summary

Daily Weather History Graph

Daily Weather History Graph

Search for Another Location

Airport or City:

Trip Planner

Search our weather history database for the weather conditions in past years. The results will help you decide how hot, cold, wet, or windy it might be!

Date:

Astronomy

Feb. 28, 2012 Rise Set
Actual Time 7:24 AM MST 6:30 PM MST
Civil Twilight 6:55 AM MST 6:59 PM MST
Nautical Twilight 6:21 AM MST 7:33 PM MST
Astronomical Twilight 5:47 AM MST 8:07 PM MST
Moon 10:16 AM MST (2/28) 12:45 AM MST (2/28)
Length of Visible Light 12h 04m
Length of Day
11h 05m
Waxing Crescent, 38% of the Moon is Illuminated
Feb 28
Waxing Crescent
Feb 29
First Quarter
Mar 8
Full
Mar 14
Last Quarter
Mar 22
New

Hourly Weather History & Observations

Time (MST) Temp. Windchill Dew Point Humidity Pressure Visibility Wind Dir Wind Speed Gust Speed Precip Events Conditions
12:51 AM 15.1 °F 6.4 °F 10.0 °F 80% 29.90 in 10.0 mi NNW 5.8 mph - N/A   Clear
1:51 AM 8.1 °F - 6.1 °F 92% 29.91 in 10.0 mi Calm Calm - N/A   Clear
2:51 AM 8.1 °F - 3.9 °F 83% 29.90 in 10.0 mi Calm Calm - N/A   Clear
3:51 AM 6.1 °F - 1.9 °F 83% 29.91 in 10.0 mi Calm Calm - N/A   Clear
4:51 AM 3.0 °F - -0.0 °F 87% 29.92 in 10.0 mi Calm Calm - 0.40 in   Clear
5:51 AM 3.0 °F -4.4 °F -0.0 °F 87% 29.93 in 10.0 mi NE 3.5 mph - N/A   Clear
6:51 AM 1.9 °F - -2.0 °F 83% 29.95 in 10.0 mi Calm Calm - N/A   Clear
7:51 AM -0.0 °F - -4.0 °F 83% 29.99 in 10.0 mi Calm Calm - N/A   Clear
8:51 AM 1.9 °F -5.6 °F -0.0 °F 91% 30.00 in 10.0 mi SW 3.5 mph - N/A   Clear
9:51 AM 10.0 °F - 7.0 °F 87% 29.99 in 10.0 mi Calm Calm - N/A   Clear
10:51 AM 14.0 °F - 10.9 °F 88% 29.99 in 10.0 mi Calm Calm - N/A   Unknown
12:51 PM 19.9 °F - 12.9 °F 74% 29.98 in 10.0 mi Calm Calm - N/A   Clear
1:51 PM 24.1 °F 19.7 °F 12.9 °F 62% 29.98 in 10.0 mi South 3.5 mph - N/A   Clear
2:51 PM 28.9 °F 19.8 °F 12.9 °F 51% 29.96 in 10.0 mi SSE 10.4 mph - N/A   Clear
3:51 PM 28.0 °F 20.0 °F 12.9 °F 53% 29.97 in 10.0 mi SSE 8.1 mph - N/A   Mostly Cloudy
4:51 PM 27.0 °F 19.5 °F 12.9 °F 56% 29.96 in 10.0 mi SSE 6.9 mph - N/A   Clear
5:51 PM 27.0 °F 18.7 °F 10.9 °F 51% 29.96 in 10.0 mi SE 8.1 mph - N/A   Mostly Cloudy
6:51 PM 27.0 °F 19.5 °F 10.0 °F 49% 29.96 in 10.0 mi SE 6.9 mph - N/A   Mostly Cloudy
7:51 PM 25.0 °F 18.1 °F 12.0 °F 58% 29.96 in 10.0 mi SSE 5.8 mph - N/A   Overcast
8:51 PM 26.1 °F 19.4 °F 12.0 °F 55% 29.93 in 10.0 mi SSE 5.8 mph - N/A   Overcast
9:51 PM 26.1 °F 18.4 °F 12.9 °F 58% 29.90 in 10.0 mi SSE 6.9 mph - N/A   Overcast
10:51 PM 27.0 °F 18.0 °F 14.0 °F 58% 29.87 in 10.0 mi SSE 9.2 mph - N/A   Overcast
11:15 PM 26.6 °F 15.7 °F 15.8 °F 64% 29.73 in 5.0 mi South 12.7 mph 23.0 mph 0.00 in Snow Light Snow
11:51 PM 26.1 °F 13.6 °F 18.0 °F 71% 29.83 in 9.0 mi SE 16.1 mph 21.9 mph 0.00 in   Overcast